Flag for Germany Weather past 2 weeks in Marl, North Rhine-Westphalia, Germany

Now
48 °F

Overcast.


Feels Like: 48 °F
Forecast: 50 / 59 °F
Wind: 1 mph from North

Location: Duesseldorf

Current Time: May 24, 2015 at 5:25:26 AM

Latest Report: May 24, 2015 at 5:00 AM


Visibility: 19 mi

Pressure: 30.15 "Hg

Humidity: 84%

Dew point: 44 °F

Location of MarlLocation

Historic Weather in Marl — Graph

°F

Marl temperature yesterday

Maximum temperature yesterday: 67 °F (at 1:00 PM)
Minimum temperature yesterday: 51 °F (at 5:00 AM)
Average temperature yesterday: 57 °F

Past Weeks' High & Low Weather Summary

 TemperatureHumidityPressure
High78 °F (May 11, 6:00 PM)99% (May 17, 2:00 AM)30.35 "Hg (May 17, 2:00 AM)
Low38 °F (May 21, 4:00 AM)36% (May 13, 4:00 PM)29.65 "Hg (May 18, 8:00 PM)
Average56 °F65%30.09 "Hg
* Reported May 9 4:00 AM — May 24 4:00 AM, Marl, Weather by CustomWeather, © 2015

Note: Actual official high and low records may vary slightly from our data, if they occured in-between our weather recording intervals... More about our weather records

Advertising

Marl weather history for previous 24 hours

 ConditionsComfort  
Time TempWeatherWind HumidityBarometerVisibility
4:00 AM
Sun, May 24
47 °FOvercast.1 mph88%30.15 "Hg19 mi
3:00 AM46 °FPassing clouds.1 mph89%30.16 "Hg19 mi
2:00 AM49 °FPassing clouds.3 mph81%30.17 "Hg19 mi
1:00 AM50 °FPassing clouds.3 mph83%30.18 "Hg19 mi
12:00 AM51 °FPassing clouds.2 mph90%30.18 "Hg19 mi
10:00 PM
Sat, May 23
56 °FOvercast.2 mph77%30.17 "Hg16 mi
9:00 PM57 °FOvercast.3 mph75%30.16 "Hg16 mi
8:00 PM58 °FOvercast.5 mph75%30.15 "Hg19 mi
7:00 PM58 °FOvercast.5 mph75%30.15 "Hg16 mi
6:00 PM59 °FOvercast.6 mph76%30.15 "Hg16 mi
4:00 PM62 °FOvercast.7 mph71%30.14 "Hg16 mi
3:00 PM65 °FOvercast.5 mph59%30.14 "Hg19 mi
2:00 PM67 °FOvercast.5 mph49%30.14 "Hg22 mi
1:00 PM67 °FOvercast.5 mph42%30.15 "Hg19 mi
12:00 PM64 °FPartly sunny.2 mph45%30.16 "Hg16 mi
10:00 AM59 °FOvercast.2 mph64%30.19 "Hg12 mi
9:00 AM57 °FOvercast.2 mph70%30.19 "Hg11 mi
8:00 AM56 °FOvercast.2 mph77%30.18 "Hg10 mi
7:00 AM54 °FOvercast.2 mph79%30.17 "Hg10 mi
6:00 AM53 °FOvercast.No wind89%30.17 "Hg9 mi
5:00 AM51 °FOvercast.1 mph93%30.18 "Hg14 mi
Weather by CustomWeather, © 2015

See weather overviewHow to use our weather pages